Springfield, OH (45503)

8:06 AM EST on February 09, 2016 (GMT -0500)
Springfield OH | | Change Station
CLOSE
Current Station
Personal Weather Station
Location: Springfield, OH
Elevation: 1040 ft
Nearby Weather Stations
Active Advisory: Winter Weather Advisory Active Notice: Public Information Statement

Elev 1040 ft 39.98 °N, 83.78 °W | Updated 26 seconds ago

Overcast
Overcast
22.4 °F
Feels Like 22 °F
N
1.0
Wind Variable Wind from WSW
Gusts 7.0 mph

Today
High -- | Low -- °F
--% Chance of Precip.
Yesterday
High -- | Low -- °F
Precip. -- in
Pressure 29.73 in
Visibility 1.5 miles
Clouds Mostly Cloudy 100 ft
Overcast 1100 ft
Windchill 22 °F
Dew Point 20 °F
Humidity 91%
Rainfall 0.00 in
Snow Depth Not available.
7:35 AM 6:03 PM
New Moon, 1% visible
METAR KSGH 091256Z AUTO 23010KT 1 1/2SM -SN BR BKN001 OVC011 M06/M07 A2969 RMK AO2 T10611072 UPB20E45SNE04B45 P0000 SLP065
Pressure 29.73 in
Visibility 1.5 miles
Clouds Mostly Cloudy 100 ft
Overcast 1100 ft
Windchill 22 °F
Dew Point 20 °F
Humidity 91%
Rainfall 0.00 in
Snow Depth Not available.
7:35 AM 6:03 PM
New Moon, 1% visible
METAR KSGH 091256Z AUTO 23010KT 1 1/2SM -SN BR BKN001 OVC011 M06/M07 A2969 RMK AO2 T10611072 UPB20E45SNE04B45 P0000 SLP065

10-Day Weather Forecast

Almanac

Astronomy

Feb. 09, 2016 Rise Set
Actual Time
Civil Twilight
Nautical Twilight
Astronomical Twilight
Moon
Length of Visible Light
Length of Day
Tomorrow will be .
, % of the Moon is Illuminated

Today's Extremes

State Highs State Lows

Community

WunderPhotos

Upload Photos

1,891,589 photos uploaded!

WunderBlog® & News

Nearby

Air Quality

  Air Quality AQ Index Pollutant
Not available.

Snow Depth

Station Depth Elevation

Earthquake Activity

City Distance Mag. Time & Date
Minimum magnitude displayed is 2.5.

Coastal Water Temperatures

Place Temperature

Stations

Nearby Weather Stations

Station Location Temp. Windchill Dew Point Humidity Wind Precip. Elev Updated Type
                   

Watches & Warnings

Winter Weather Advisory
Issued: 3:53 AM EST Feb. 9, 2016 – National Weather Service

... Winter Weather Advisory remains in effect until 6 am EST
Wednesday...

* hazard types... snow.

* Accumulations... snow accumulations of 1 to 4 inches.

* Timing... occasional snow will occur through the morning hours
with accumulations of 1 to 4 inches through noon. Occasional
snow showers will then continue through tonight with another
inch or two possible.

* Impacts... travel difficulties are expected due to reduced
visibilities and snow accumulations.

Precautionary/preparedness actions...

Remember... a Winter Weather Advisory for snow means that periods
of snow will cause primarily travel difficulties. Be prepared for
snow covered roads and limited visibilities... and use caution
while driving. Stay tuned to NOAA Weather Radio or your favorite
source of information for the latest updates. Additional details
can also be found at www.Weather.Gov/iln as well as on our
facebook and twitter pages.